星链-6200 (STARLINK-6200 )

导读 | 豆包AI

STARLINK-6200是美国太空探索技术公司(SpaceX)星链(Starlink)互联网星座的组网卫星,于2023年6月12日发射升空。作为星链星座的组成部分,它将助力完成全球低轨卫星互联网组网,为全球范围内用户提供高速低延迟的互联网接入服务,进一步完善星链星座的服务覆盖能力与网络容量。

基本信息
目录编号:
56897
目录名称:
STARLINK-6200
国际标识:
2023-083X
轨道中心:
EARTH
卫星名称:
星链-6200
卫星全名:
星链-6200 (STARLINK-6200 )
卫星状态:
在轨 (已飞行1007 天)
发射日期:
2023-06-12 UTC
国别 :
美国 (US)
星等 :
--
轨道信息
数据来源 国际轨道数据
星历时间: 2026-03-15T22:33:21+0800
7小时前
查看轨道信息
半长轴: 6935.369km
偏心率: 0.0001442
轨道倾角: 43.006°
近地点辐角 271.157°
升交点赤经 49.346°
平近点角 88.910°
近地点: 556.231km
远地点: 558.233km
周期: 95.800分钟
每日圈数: 15.031367
详细信息
固有亮度:
5
最大亮度:
2.4
卫星平台:
Starlink v1.5
覆盖范围:
全球
运营商:
太空探索技术公司
运营商所在国:
美国
制造商(研发单位):
太空探索技术公司
制造商所在国:
美国
使用方式:
暂无
卫星简介
星链(Starlink)计划是由太空探索技术公司(SpaceX)提出的一个巨型低轨卫星互联网星座项目,计划在2019年至2024年间在太空搭建由约1.2万颗卫星组成的“星链”网络,其中1584颗将部署在地球上空550千米处的近地轨道,并从2020年开始工作。该卫星仍在工作。
2D轨道图
3D轨道图
轨道高度分析图
轨道倾角分析图
轨道综合分析图
查看轨道综合分析图